User: anonymous   Login
Location: Unspecified
(0.0000°N, 0.0000°E)
Time: 07:27:01
(UTC+00:00)
Language:

SWISSCUBE - Orbit

View from above orbital plane
View from above orbital plane
View from above satellite
View from above satellite

Ground track
Ground track

The orbit data is extracted from the following two-line orbital elements,

1 35932U 09051B   22333.54216092  .00000669  00000-0  15929-3 0  9999
2 35932  98.5449 193.9261 0006371 260.7094  99.3383 14.57099012700133
Epoch (UTC): 29 November 2022 13:00:42
Eccentricity: 0.0006371
inclination: 98.5449°
perigee height: 698 km
apogee height: 707 km
right ascension of ascending node: 193.9261°
argument of perigee: 260.7094°
revolutions per day: 14.57099012
mean anomaly at epoch: 99.3383°
orbit number at epoch: 70013

The dashed part of the orbit path shows where the satellite is in the earth's shadow,  

DLR